Regional Weather Roundup
Issued by NWS Cleveland, OH

Home | Current Version | Previous Version | Graphics & Text | Print | Product List | Glossary On
Versions: 1 2 3 4 5 6 7 8 9 10 11 12 13 14 15 16 17 18 19 20 21 22 23 24 25 26 27 28 29 30 31 32 33 34 35 36 37 38 39 40 41 42 43 44 45 46 47 48 49 50
000
ASUS41 KCLE 211200
RWRCLE
OHIO REGIONAL WEATHER ROUNDUP
NATIONAL WEATHER SERVICE WILMINGTON, OH
800 AM EDT MON MAY 21 2018

NOTE: "FAIR" INDICATES FEW OR NO CLOUDS BELOW 12,000 FEET WITH NO
SIGNIFICANT WEATHER AND/OR OBSTRUCTIONS TO VISIBILITY.

OHZ001>008-015>018-024>027-034-035-043-044-211300-
   NORTHWEST OHIO

CITY           SKY/WX    TMP DP  RH WIND       PRES   REMARKS
DEFIANCE       PTSUNNY   57  53  86 E9        30.21R
FINDLAY        FAIR      57  50  77 E8        30.21R
TOLEDO EXPRESS LGT RAIN  55  52  89 E6        30.22R
TOLEDO EXEC    CLOUDY    56  49  77 E8        30.23R
LIMA           FAIR      57  53  86 NE12      30.19R
$$

OHZ009>014-019>023-028>033-038-089-211300-
   NORTHEAST OHIO

CITY           SKY/WX    TMP DP  RH WIND       PRES   REMARKS
CLE-HOPKINS    PTSUNNY   56  50  80 NE5       30.25R
CLE-LAKEFRONT  FAIR      55  48  77 N7        30.23R
CUY CO. ARPT   MOSUNNY   57  50  77 E6        30.24R
LORAIN-ELYRIA  FAIR      54  44  69 NE12      30.24R
ASHTABULA      FAIR      52  50  93 CALM      30.25R
AKRON-CANTON   FAIR      58  50  75 E10       30.22R
WOOSTER        NOT AVBL
MANSFIELD      FAIR      54  53  97 NE7       30.22R
YOUNGSTOWN     FAIR      57  52  83 NE7       30.23R
$$

OHZ042-051>053-060>062-070>072-077>081-211300-
  SOUTHWEST OHIO

CITY           SKY/WX    TMP DP  RH WIND       PRES   REMARKS
CINC-COVINGTON CLOUDY    67  63  87 E8        30.13R
CINC-LUNKEN    FAIR      66  64  93 NE6       30.14R
HAMILTON       FAIR      65  63  93 E6        30.15R
DAYTON         NOT AVBL
WRIGHT-PAT AFB NOT AVBL
DAYTON GENERAL FAIR      64  58  80 E8        30.14R
WILMINGTON     FAIR      63  61  93 E8        30.16R
$$

OHZ036-037-039>041-045>050-054>059-063>069-073>076-082>088-211300-
  CENTRAL AND SOUTHEAST OHIO

CITY           SKY/WX    TMP DP  RH WIND       PRES   REMARKS
COLUMBUS       CLOUDY    62  57  83 E7        30.18R
OSU AIRPORT    FAIR      60  57  89 NE6       30.18R
BOLTON FIELD   CLOUDY    61  59  94 E3        30.19R
RICKENBACK AFB NOT AVBL
NEWARK         LGT RAIN  60  56  86 E8        30.19R
MARION         PTSUNNY   58  53  84 E8        30.20S
LANCASTER      PTSUNNY   62  59  90 VRB5      30.19R
ZANESVILLE     LGT RAIN  60  57  89 NE5       30.19S
NEW PHILLY     FAIR      60  56  86 NE3       30.21R
$$



USA.gov is the U.S. government's official web portal to all federal, state and local government web resources and services.